Find Insat 4A

NORAD ID: 28911 Int'l Des: 2005-049 Owner: ISRO Country: IN operational
HEOCIRCULAR

实时位置

正在加载3D地球...

关于 Insat 4A

正在加载描述...

即将过境

Passes for default location (London). Set your location on the main map for personalized predictions.

高度历史

Loading altitude history...

两行轨道根数

1 28911U 05049A 26105.35827502 -.00000161 00000-0 00000+0 0 9993
2 28911 6.2796 72.5005 0003561 139.8751 56.1541 0.99198778 44807
Epoch: Apr 15, 2026 • Age: 18 hours

当前状态

高度 36077.0 km
速度 3.06 km/s
星下点 6.11°N, 66.82°W
发射日期 Dec 21, 2005
运行时间 20.3 years
类型 other

技术详情

分类 Payload
质量 3081.00 kg
干质量 1425.00 kg
总质量 3081.00 kg
长度 2.80 m
直径 2.00 m
跨度 15.40 m
形状 Box + 2 Pan
制造商 ISAC
平台类型 I3K
阶段状态 In Orbit
所有者/国家 ISRO/IN

Most Searched